Alexandria Esle, LA

11:49 AM CDT on June 29, 2017 (GMT -0500)
Alexandria Esler Regional

Weather History for KESF - February, 2013

Change the Weather History Date:

Tuesday, February 5, 2013

  Actual Average Record
Temperature  
Mean Temperature 54 °F -  
Max Temperature 63 °F 58 °F 80 °F (2008)
Min Temperature 46 °F 36 °F 23 °F (1966)
Degree Days  
Heating Degree Days 10    
Growing Degree Days 4 (Base 50)    
Moisture  
Dew Point 52 °F    
Average Humidity 94    
Maximum Humidity 100    
Minimum Humidity 81    
Precipitation  
Precipitation 0.10 in - - ()
Sea Level Pressure  
Sea Level Pressure 30.00 in    
Wind  
Wind Speed 1 mph (ESE)    
Max Wind Speed 5 mph    
Max Gust Speed -    
Visibility 2 miles    
Events Fog , Rain    
Averages and records for this station are not official NWS values.
T = Trace of Precipitation, MM = Missing Value Source: NWS Daily Summary

Daily Weather History Graph

Daily Weather History Graph

Search for Another Location

Airport or City:

Trip Planner

Search our weather history database for the weather conditions in past years. The results will help you decide how hot, cold, wet, or windy it might be!

Date:

Astronomy

Feb. 05, 2013 Rise Set
Actual Time 6:58 AM CST 5:48 PM CST
Civil Twilight 6:33 AM CST 6:13 PM CST
Nautical Twilight 6:04 AM CST 6:42 PM CST
Astronomical Twilight 5:36 AM CST 7:10 PM CST
Moon 2:34 AM CST (2/5) 1:12 PM CST (2/5)
Length of Visible Light 11h 39m
Length of Day
10h 49m
Waning Crescent, 26% of the Moon is Illuminated
Feb 5
Waning Crescent
Feb 10
New
Feb 17
First Quarter
Feb 25
Full
Mar 4
Last Quarter

Hourly Weather History & Observations

Time (CST) Temp. Dew Point Humidity Pressure Visibility Wind Dir Wind Speed Gust Speed Precip Events Conditions
12:43 AM 48.2 °F 46.4 °F 93% 29.94 in 8.0 mi NE 3.5 mph - N/A   Mostly Cloudy
12:53 AM 50.0 °F 48.0 °F 93% 29.94 in 10.0 mi Variable 3.5 mph - N/A   Mostly Cloudy
1:53 AM 52.0 °F 48.9 °F 89% 29.93 in 10.0 mi Calm Calm - N/A   Overcast
2:53 AM 52.0 °F 48.9 °F 89% 29.92 in 10.0 mi Calm Calm - N/A   Overcast
3:35 AM 53.6 °F 51.8 °F 94% 29.93 in 4.0 mi Calm Calm - N/A   Overcast
3:53 AM 54.0 °F 52.0 °F 93% 29.93 in 2.0 mi Calm Calm - N/A   Overcast
4:02 AM 53.6 °F 51.8 °F 94% 29.93 in 1.5 mi Calm Calm - N/A   Overcast
4:32 AM 53.6 °F 51.8 °F 94% 29.94 in 2.0 mi Calm Calm - N/A   Overcast
4:40 AM 53.6 °F 51.8 °F 94% 29.94 in 1.2 mi Calm Calm - 0.00 in Rain Light Rain
4:53 AM 54.0 °F 52.0 °F 93% 29.94 in 1.0 mi Calm Calm - 0.08 in Rain Heavy Rain
5:03 AM 53.6 °F 53.6 °F 100% 29.94 in 1.5 mi Calm Calm - 0.00 in Rain Light Rain
5:16 AM 53.6 °F 53.6 °F 100% 29.94 in 2.5 mi East 3.5 mph - 0.01 in Rain Light Rain
5:21 AM 53.6 °F 53.6 °F 100% 29.95 in 3.0 mi Calm Calm - 0.01 in Rain Light Rain
5:53 AM 54.0 °F 53.1 °F 97% 29.95 in 2.0 mi Calm Calm - 0.01 in   Overcast
6:01 AM 55.4 °F 53.6 °F 94% 29.96 in 1.2 mi Calm Calm - N/A   Overcast
6:12 AM 55.4 °F 53.6 °F 94% 29.96 in 0.5 mi Calm Calm - N/A Fog Fog
6:40 AM 53.6 °F 53.6 °F 100% 29.96 in 0.2 mi Calm Calm - N/A Fog Fog
6:53 AM 54.0 °F 53.1 °F 97% 29.97 in 0.2 mi Calm Calm - N/A Fog Fog
7:53 AM 55.0 °F 54.0 °F 96% 29.98 in 0.2 mi Calm Calm - N/A Fog Fog
8:53 AM 55.9 °F 55.0 °F 97% 30.00 in 0.2 mi Calm Calm - N/A Fog Fog
9:53 AM 57.2 °F 55.4 °F 94% 30.03 in 0.2 mi Calm Calm - N/A Fog Fog
10:25 AM 57.2 °F 55.4 °F 94% 30.04 in 0.5 mi Calm Calm - N/A Fog Fog
10:53 AM 57.9 °F 55.9 °F 93% 30.04 in 0.5 mi Calm Calm - N/A Fog Fog
11:14 AM 57.2 °F 55.4 °F 94% 30.04 in 1.2 mi Calm Calm - 0.00 in   Overcast
11:32 AM 57.2 °F 55.4 °F 94% 30.03 in 2.0 mi Calm Calm - 0.01 in   Overcast
11:53 AM 57.9 °F 57.0 °F 97% 30.03 in 2.0 mi Calm Calm - 0.01 in   Overcast
12:03 PM 57.2 °F 57.2 °F 100% 30.03 in 1.5 mi Calm Calm - N/A   Overcast
12:14 PM 57.2 °F 57.2 °F 100% 30.03 in 2.0 mi Calm Calm - N/A   Overcast
12:41 PM 59.0 °F 57.2 °F 94% 30.02 in 4.0 mi Calm Calm - N/A   Overcast
12:53 PM 59.0 °F 57.0 °F 93% 30.02 in 2.5 mi Calm Calm - N/A   Overcast
1:53 PM 59.0 °F 57.0 °F 93% 30.00 in 2.5 mi Calm Calm - N/A   Overcast
2:01 PM 60.8 °F 57.2 °F 88% 30.00 in 4.0 mi Calm Calm - N/A   Overcast
2:53 PM 61.0 °F 57.0 °F 87% 30.00 in 7.0 mi Calm Calm - N/A   Overcast
3:43 PM 62.6 °F 57.2 °F 82% 29.99 in 8.0 mi SE 4.6 mph - N/A   Overcast
3:51 PM 60.8 °F 57.2 °F 88% 29.99 in 8.0 mi East 4.6 mph - N/A   Overcast
3:53 PM 61.0 °F 57.0 °F 87% 29.99 in 8.0 mi East 4.6 mph - N/A   Mostly Cloudy
4:12 PM 62.6 °F 57.2 °F 82% 29.99 in 8.0 mi ESE 4.6 mph - N/A   Mostly Cloudy
4:21 PM 62.6 °F 57.2 °F 82% 29.99 in 8.0 mi SSE 3.5 mph - N/A   Mostly Cloudy
4:53 PM 63.0 °F 57.0 °F 81% 29.99 in 9.0 mi Calm Calm - N/A   Partly Cloudy
5:53 PM 57.9 °F 55.9 °F 93% 29.99 in 1.5 mi Calm Calm - N/A   Clear
6:01 PM 57.2 °F 55.4 °F 94% 29.99 in 0.5 mi Calm Calm - N/A Fog Fog
6:21 PM 57.2 °F 55.4 °F 94% 29.99 in 0.5 mi Calm Calm - N/A Fog Fog
6:25 PM 55.4 °F 53.6 °F 94% 29.99 in 0.2 mi Calm Calm - N/A Fog Fog
6:51 PM 55.4 °F 53.6 °F 94% 30.00 in 0.2 mi Calm Calm - N/A Fog Fog
6:53 PM 54.0 °F 53.1 °F 97% 30.00 in 0.2 mi Calm Calm - N/A Fog Fog
7:15 PM 53.6 °F 51.8 °F 94% 30.01 in 0.2 mi Calm Calm - N/A Fog Fog
7:35 PM 53.6 °F 51.8 °F 94% 30.02 in 0.2 mi Calm Calm - N/A Fog Fog
7:42 PM 53.6 °F 51.8 °F 94% 30.02 in 0.5 mi Calm Calm - N/A Fog Fog
7:53 PM 52.0 °F 51.1 °F 97% 30.02 in 0.2 mi Calm Calm - N/A Fog Fog
8:18 PM 51.8 °F 50.0 °F 94% 30.03 in 0.2 mi Calm Calm - N/A Fog Fog
8:26 PM 51.8 °F 50.0 °F 94% 30.03 in 0.2 mi Calm Calm - N/A Fog Fog
8:46 PM 51.8 °F 48.2 °F 88% 30.04 in 0.5 mi Calm Calm - N/A Fog Fog
8:53 PM 51.1 °F 50.0 °F 96% 30.04 in 0.8 mi Calm Calm - N/A   Mist
9:30 PM 50.0 °F 48.2 °F 94% 30.05 in 0.2 mi Calm Calm - N/A Fog Fog
9:44 PM 48.2 °F 48.2 °F 100% 30.05 in 0.5 mi Calm Calm - N/A Fog Fog
9:53 PM 48.0 °F 46.9 °F 96% 30.05 in 0.2 mi Calm Calm - N/A Fog Fog
10:05 PM 48.2 °F 46.4 °F 93% 30.05 in 0.5 mi Calm Calm - N/A Fog Fog
10:22 PM 48.2 °F 46.4 °F 93% 30.05 in 0.5 mi Calm Calm - N/A Fog Fog
10:24 PM 48.2 °F 46.4 °F 93% 30.05 in 0.2 mi Calm Calm - N/A Fog Fog
10:30 PM 48.2 °F 46.4 °F 93% 30.05 in 0.5 mi Calm Calm - N/A Fog Fog
10:53 PM 48.0 °F 46.0 °F 93% 30.05 in 0.5 mi Calm Calm - N/A Fog Fog
11:06 PM 48.2 °F 46.4 °F 93% 30.05 in 0.5 mi Calm Calm - N/A Fog Fog
11:24 PM 48.2 °F 46.4 °F 93% 30.05 in 2.0 mi Calm Calm - N/A   Overcast
11:30 PM 48.2 °F 46.4 °F 93% 30.05 in 0.8 mi Calm Calm - N/A   Mist
11:45 PM 46.4 °F 46.4 °F 100% 30.05 in 1.2 mi Calm Calm - N/A   Overcast
11:53 PM 46.9 °F 46.0 °F 97% 30.04 in 0.5 mi Calm Calm - N/A Fog Fog